Flag for U.S.A. Weather past 2 weeks in Albany, New York, U.S.A.

Now
73 °F

Partly sunny.


Feels Like: 77 °F
Forecast: 59 / 75 °F
Wind: 10 mph from Northwest

Location: Albany County Airport

Current Time: Jul 2, 2015 at 7:47:51 PM

Latest Report: Jul 2, 2015 at 6:51 PM


Visibility: 10 mi

Pressure: 29.88 "Hg

Humidity: 44%

Dew point: 50 °F

Location of AlbanyLocation

Historic Weather in Albany — Graph

°F

Albany temperature yesterday

Maximum temperature yesterday: 80 °F (at 2:51 PM)
Minimum temperature yesterday: 66 °F (at 10:51 PM)
Average temperature yesterday: 70 °F

Past Weeks' High & Low Weather Summary

 TemperatureHumidityPressure
High88 °F (Jun 23, 3:51 PM)94% (Jun 21, 1:51 AM)30.15 "Hg (Jun 21, 1:51 AM)
Low50 °F (Jun 20, 4:59 AM)34% (Jun 25, 3:51 PM)29.67 "Hg (Jun 21, 3:51 PM)
Average68 °F69%29.92 "Hg
* Reported Jun 17 6:51 PM — Jul 2 6:51 PM, Albany, Weather by CustomWeather, © 2015

Note: Actual official high and low records may vary slightly from our data, if they occured in-between our weather recording intervals... More about our weather records

Advertising

Albany weather history for previous 24 hours

 ConditionsComfort  
Time TempWeatherWind HumidityBarometerVisibility
6:51 PM
Thu, Jul 2
73 °FPartly sunny.10 mph44%29.88 "Hg10 mi
5:51 PM75 °FBroken clouds.9 mph42%29.88 "Hg10 mi
4:51 PM76 °FScattered clouds.12 mph42%29.89 "Hg10 mi
3:51 PM77 °FScattered clouds.9 mph42%29.89 "Hg10 mi
2:51 PM76 °FScattered clouds.14 mph43%29.90 "Hg10 mi
1:51 PM75 °FScattered clouds.9 mph48%29.90 "Hg10 mi
12:51 PM73 °FBroken clouds.8 mph53%29.90 "Hg10 mi
11:51 AM72 °FScattered clouds.9 mph55%29.92 "Hg10 mi
10:51 AM71 °FBroken clouds.7 mph55%29.92 "Hg10 mi
9:51 AM70 °FScattered clouds.8 mph61%29.91 "Hg10 mi
8:51 AM68 °FPartly sunny.9 mph65%29.91 "Hg10 mi
7:51 AM65 °FPartly sunny.8 mph73%29.90 "Hg10 mi
6:51 AM63 °FPartly sunny.5 mph75%29.90 "Hg10 mi
5:51 AM61 °FPassing clouds.6 mph81%29.88 "Hg10 mi
4:51 AM62 °FPassing clouds.5 mph78%29.88 "Hg10 mi
3:51 AM63 °FPassing clouds.8 mph78%29.87 "Hg10 mi
2:51 AM61 °FClear.5 mph83%29.85 "Hg10 mi
1:51 AM63 °FPassing clouds.No wind78%29.86 "Hg10 mi
12:51 AM66 °FPassing clouds.8 mph70%29.85 "Hg10 mi
11:51 PM
Wed, Jul 1
66 °FPassing clouds.13 mph70%29.84 "Hg10 mi
10:51 PM66 °FPartly cloudy.10 mph73%29.84 "Hg10 mi
9:51 PM67 °FPassing clouds.3 mph73%29.83 "Hg10 mi
8:51 PM68 °FScattered clouds.3 mph70%29.80 "Hg10 mi
7:51 PM70 °FScattered clouds.14 mph66%29.78 "Hg10 mi
Weather by CustomWeather, © 2015

See weather overviewHow to use our weather pages